Regional Weather Roundup
Issued by NWS

Home | Current Version | Previous Version | Text Only | Print | Product List | Glossary On
Versions: 1 2 3 4 5 6 7 8 9 10 11 12 13 14 15 16 17 18 19 20 21 22 23 24 25 26 27 28 29 30 31 32 33 34 35 36 37 38 39 40 41 42 43 44 45 46 47 48 49
276
ASUS45 KBOU 292007
RWRCO

WEATHER ROUNDUP FOR COLORADO
NATIONAL WEATHER SERVICE DENVER/BOULDER CO
200 PM MDT FRI APR 29 2016

NOTE: "FAIR" INDICATES FEW OR NO CLOUDS BELOW 12000 FEET WITH NO
SIGNIFICANT WEATHER AND/OR OBSTRUCTIONS TO VISIBILITY.

COZ001>005-013-030-031-292100-
...NORTHWEST COLORADO...

CITY           SKY/WX    TMP DP  RH WIND       PRES   REMARKS
CRAIG          LGT RAIN  46  35  65 N7        29.83S
HAYDEN         FAIR      41  32  70 N15       29.82F
MEEKER         PTSUNNY   49  35  58 S3        29.80F
MOUNT WERNER   NOT AVBL
STEAMBOAT SPGS CLOUDY    38  36  91 E9        29.83S
WALDEN         CLOUDY    32  30  93 CALM      29.87S VSB 3/4
$$

COZ006>008-011-292100-
...WEST CENTRAL VALLEYS...

CITY           SKY/WX    TMP DP  RH WIND       PRES   REMARKS
GRAND JUNCTION FAIR      55  37  50 NW9       29.79F
MONTROSE       FAIR      51  33  50 SE7       29.82F
EAGLE          CLOUDY    39  37  93 CALM      29.85F
RIFLE          PTSUNNY   53  32  44 NW8       29.78F
DELTA          NOT AVBL
NUCLA          NOT AVBL
$$

COZ017>023-064>068-292100-
...SOUTHWEST COLORADO...

CITY           SKY/WX    TMP DP  RH WIND       PRES   REMARKS
DURANGO        CLOUDY    44  33  65 SW13      29.82F
CORTEZ         FAIR      54  30  40 W18G24    29.83F
PAGOSA SPRINGS TSTM      39  36  89 NE6       29.84F
TELLURIDE      FAIR      39  27  62 W12       29.87F
WOLF CREEK PAS CLOUDY    23  21  93 SW16G23   29.90S VSB 1/4 WCI  10
$$

COZ009-010-012-014-032>034-037-058>063-292100-
...CENTRAL COLORADO...

CITY           SKY/WX    TMP DP  RH WIND       PRES   REMARKS
ASPEN          LGT SNOW  37  31  78 NE5       29.82F
BUENA VISTA    CLOUDY    33  29  85 CALM      29.86S FOG
COPPER MTN     NOT AVBL
BERTHOUD PASS  SNOW      19   9  63 E9G20     29.90R VSB<1/4 WCI   9
COTTONWOOD PAS LGT SNOW  32  32 100 CALM      29.86F
GUNNISON       FAIR      34  30  86 CALM      29.86F
KREMMLING      LGT SNOW  34  32  93 CALM      29.87R VSB 1
LEADVILLE      CLOUDY    31  22  69 W5        29.83F WCI  26
MONARCH PASS   CLOUDY    21  19  93 NE13      29.96F WCI   9
SALIDA         CLOUDY    35  32  89 CALM      29.93F
SUNLIGHT       LGT SNOW  32  30  93 CALM      29.90F
WILKERSON PASS SNOW     N/A N/A N/A E6        29.90S VSB 1/4
$$

COZ069>075-292100-
...SAN LUIS VALLEY/SANGRE DE CRISTO MOUNTAINS...

CITY           SKY/WX    TMP DP  RH WIND       PRES   REMARKS
ALAMOSA        CLOUDY    37  32  82 S6        29.81F
LA VETA PASS   TSTM      28  23  80 MISG      29.85S VSB 1/4
SAGUACHE       LGT RAIN  34  32  93 CALM      29.84F
$$

COZ035-036-038>040-292100-
...NORTHERN COLORADO FRONT RANGE...

CITY           SKY/WX    TMP DP  RH WIND       PRES   REMARKS
DENVER INTL AP SNOW      33  30  88 NE8       29.94S VSB 1/4 WCI  26
DMNS CITY PARK   N/A     34  33  98 NE3       29.94S
AURORA         LGT SNOW  34  34 100 N7        29.94S FOG     WCI  28
FRONT RANGE AP SNOW      32  32 100 N8        29.94S VSB 1/2 WCI  25
ERIE MUNI ARPT LGT SNOW  33  33  99 CALM      29.96R
BOULDER MUN AP SNOW      32  32 100 CALM      29.96R VSB 1/2
CENTENNIAL     SNOW      33  32  96 NE6       29.93R VSB 1/2 WCI  28
BROOMFIELD     SNOW      32  32 100 NE5       29.95R VSB 1/2 WCI  27
FORT COLLINS   CLOUDY    34  30  86 E6        29.97R WCI  29
LONGMONT       LGT SNOW  36  34  94 CALM      29.98R VSB 3/4
$$

COZ041-046-047-076>085-087-088-292100-
...PIKES PEAK/PALMER DIVIDE AND SOUTHERN FOOTHILLS...

CITY           SKY/WX    TMP DP  RH WIND       PRES   REMARKS
COLO. SPRINGS  HVY SNOW  33  31  92 NE14      29.90F VSB 1/4 WCI  23
A. F. ACADEMY  LGT SNOW  32  32 100 N5        29.89S FOG     WCI  27
SCHRIEVER AFB  NOT AVBL
ELLICOTT       NOT AVBL
FALCON         SNOW      34  31  88 NE12      29.91S VSB 1/2 WCI  25
FORT CARSON    NOT AVBL
LIMON          LGT SNOW  33  32  96 N8        29.91S FOG     WCI  26
MONUMENT HILL  LGT SNOW  32  28  86 NE8       29.91S WCI  25
TRINIDAD       CLOUDY    36  30  79 N9        29.86F
$$

COZ042>045-048>051-090-091-292100-
...NORTHEAST COLORADO...

CITY           SKY/WX    TMP DP  RH WIND       PRES   REMARKS
GREELEY ARPT   CLOUDY    34  30  86 CALM      29.98R
AKRON          LGT SNOW  34  33  96 NE9       29.94F FOG     WCI  27
BURLINGTON     RAIN      35  32  88 N15       29.87F FOG     WCI  25
WRAY           NOT AVBL
STERLING       RAIN      37  36  93 E8        29.96F
HOLYOKE        NOT AVBL
FORT MORGAN    LGT SNOW  33  32  97 NE6       29.96F WCI  27
$$

COZ086-089-092>099-292100-
...SOUTHEAST COLORADO...

CITY           SKY/WX    TMP DP  RH WIND       PRES   REMARKS
PUEBLO         LGT SNOW  36  32  85 W7        29.90S FOG
LA JUNTA       LGT SNOW  34  32  92 N15       29.89F FOG     WCI  24
LAMAR          LGT RAIN  38  36  92 NE8       29.89R
SPRINGFIELD      N/A     38  37  97 N16       29.84S
$$




USA.gov is the U.S. government's official web portal to all federal, state and local government web resources and services.